Location: Hertford
(51.8000°N, 0.0667°W)
Time: 22:13:39
(UTC+00:00)

Cosmos 1674 - Pass Details

Date: 18 September 2020
Orbit: 495 x 517 km, 82.5° (Epoch: 20 October)

Event Time Altitude Azimuth Distance (km) Brightness Sun altitude
Rises 20:37:15 0° 343° (NNW) 2,654 7.1 -22.6°
Reaches altitude 10° 20:39:29 10° 334° (NNW) 1,762 6.2 -22.9°
Maximum altitude 20:43:03 36° 268° (W) 834 4.1 -23.3°
Enters shadow 20:44:25 27° 225° (SW) 1,021 4.2 -23.5°
